N3TW KBHM-KFLL

Flight info

Callsign N3TW
Flight time N/A
Altitude 41000
Route GUMMP ACORI TEEKY4
Aircraft C700/M-SBDGHM1RWXY/LB2

Departure

Time 2026-04-25 01:57
Airport Birmingham-Shuttlesworth International Airport (KBHM)

Arrival

Time N/A
Airport Fort Lauderdale Hollywood International Airport (KFLL)
Time Latitude Longitude Altitude Speed Heading
2026-04-25 01:35 33.56626 -86.74324 638 ft 0 kts 327°
2026-04-25 01:51 33.56626 -86.74325 638 ft 0 kts 315°
2026-04-25 01:51 33.56625 -86.74328 638 ft 1 kts 276°
2026-04-25 01:51 33.56623 -86.74366 638 ft 0 kts 282°
2026-04-25 01:51 33.56623 -86.74367 638 ft 0 kts 289°
2026-04-25 01:52 33.56624 -86.74368 638 ft 2 kts 291°
2026-04-25 01:52 33.56641 -86.74422 638 ft 12 kts 271°
2026-04-25 01:52 33.56640 -86.74540 638 ft 11 kts 269°
2026-04-25 01:53 33.56641 -86.74552 638 ft 0 kts 273°
2026-04-25 01:53 33.56650 -86.74575 639 ft 7 kts 317°
2026-04-25 01:53 33.56726 -86.74586 642 ft 17 kts
2026-04-25 01:54 33.56811 -86.74496 643 ft 21 kts 56°
2026-04-25 01:54 33.56918 -86.74309 641 ft 32 kts 52°
2026-04-25 01:54 33.57062 -86.74062 639 ft 40 kts 55°
2026-04-25 01:54 33.57164 -86.73881 643 ft 13 kts 54°
2026-04-25 01:55 33.57252 -86.73848 644 ft 10 kts 330°
2026-04-25 01:55 33.57266 -86.73860 644 ft 2 kts 323°
2026-04-25 01:55 33.57294 -86.73883 645 ft 9 kts 325°
2026-04-25 01:55 33.57324 -86.73959 648 ft 11 kts 246°
2026-04-25 01:56 33.57315 -86.73977 646 ft 0 kts 237°
2026-04-25 01:56 33.57118 -86.74318 643 ft 97 kts 237°
2026-04-25 01:57 33.55825 -86.76548 1306 ft 194 kts 236°
2026-04-25 01:57 33.54979 -86.77740 2858 ft 183 kts 214°
2026-04-25 01:57 33.53701 -86.78192 3873 ft 216 kts 181°
2026-04-25 01:58 33.52166 -86.77837 5141 ft 230 kts 167°
2026-04-25 01:58 33.50393 -86.77390 5277 ft 273 kts 169°
2026-04-25 01:58 33.48576 -86.76877 4953 ft 267 kts 166°
2026-04-25 01:58 33.46797 -86.76245 4666 ft 261 kts 164°
2026-04-25 01:59 33.45099 -86.75581 4560 ft 249 kts 162°
2026-04-25 01:59 33.43480 -86.74970 4476 ft 243 kts 163°
2026-04-25 01:59 33.41884 -86.74374 4388 ft 241 kts 164°
2026-04-25 01:59 33.40286 -86.73775 4295 ft 239 kts 164°
2026-04-25 02:00 33.38721 -86.73188 4200 ft 237 kts 164°
2026-04-25 02:00 33.37150 -86.72597 4109 ft 237 kts 164°
2026-04-25 02:00 33.35572 -86.72004 4006 ft 238 kts 164°
2026-04-25 02:00 33.33994 -86.71420 3956 ft 241 kts 165°
2026-04-25 02:01 33.32270 -86.70810 4504 ft 261 kts 164°
2026-04-25 02:01 33.30544 -86.70181 6232 ft 261 kts 164°
2026-04-25 02:01 33.28782 -86.69539 7653 ft 272 kts 165°
2026-04-25 02:01 33.26933 -86.68868 9079 ft 280 kts 165°
2026-04-25 02:02 33.25040 -86.68180 10403 ft 293 kts 165°
2026-04-25 02:02 33.22984 -86.67438 11294 ft 320 kts 166°
2026-04-25 02:02 33.20829 -86.66652 12641 ft 329 kts 166°
2026-04-25 02:02 33.18588 -86.65837 13964 ft 340 kts 167°
2026-04-25 02:03 33.16305 -86.65011 15194 ft 347 kts 166°
2026-04-25 02:03 33.13992 -86.64172 16401 ft 354 kts 166°
2026-04-25 02:03 33.12404 -86.63596 17093 ft 360 kts 166°
2026-04-25 02:03 33.09176 -86.62422 18448 ft 368 kts 164°
2026-04-25 02:04 33.07581 -86.61638 19036 ft 374 kts 154°
2026-04-25 02:04 33.05360 -86.59956 19983 ft 380 kts 145°
2026-04-25 02:04 33.03225 -86.58102 20887 ft 384 kts 145°
2026-04-25 02:04 33.01036 -86.56217 21765 ft 388 kts 145°
2026-04-25 02:05 32.98836 -86.54330 22638 ft 393 kts 145°
2026-04-25 02:05 32.96630 -86.52435 23476 ft 397 kts 144°
2026-04-25 02:05 32.94367 -86.50490 24213 ft 401 kts 144°
2026-04-25 02:05 32.92105 -86.48548 24952 ft 405 kts 145°
2026-04-25 02:06 32.89794 -86.46567 25679 ft 409 kts 145°
2026-04-25 02:06 32.87465 -86.44572 26362 ft 414 kts 145°
2026-04-25 02:06 32.85122 -86.42565 27034 ft 418 kts 145°
2026-04-25 02:06 32.82766 -86.40547 27737 ft 422 kts 145°
2026-04-25 02:07 32.80343 -86.38475 28440 ft 427 kts 146°
2026-04-25 02:07 32.77936 -86.36419 29116 ft 432 kts 146°
2026-04-25 02:07 32.75466 -86.34309 29804 ft 437 kts 146°
2026-04-25 02:07 32.72988 -86.32194 30419 ft 441 kts 146°
2026-04-25 02:08 32.70502 -86.30072 31056 ft 443 kts 146°
2026-04-25 02:08 32.67999 -86.27939 31643 ft 446 kts 146°
2026-04-25 02:08 32.65466 -86.25782 32229 ft 448 kts 145°
2026-04-25 02:08 32.62916 -86.23612 32811 ft 451 kts 145°
2026-04-25 02:09 32.60362 -86.21439 33479 ft 450 kts 145°
2026-04-25 02:09 32.57857 -86.19310 34236 ft 446 kts 145°
2026-04-25 02:09 32.55328 -86.17162 34809 ft 446 kts 145°
2026-04-25 02:09 32.52792 -86.15010 35343 ft 445 kts 146°
2026-04-25 02:10 32.50294 -86.12892 35854 ft 445 kts 146°
2026-04-25 02:10 32.47762 -86.10745 36331 ft 444 kts 146°
2026-04-25 02:10 32.45268 -86.08632 36781 ft 444 kts 146°
2026-04-25 02:10 32.42746 -86.06498 37211 ft 444 kts 146°
2026-04-25 02:11 32.40254 -86.04391 37625 ft 443 kts 146°
2026-04-25 02:11 32.37725 -86.02254 38011 ft 443 kts 146°
2026-04-25 02:11 32.35224 -86.00141 38368 ft 443 kts 146°
2026-04-25 02:11 32.32728 -85.98034 38669 ft 443 kts 147°
2026-04-25 02:12 32.30206 -85.95907 38898 ft 444 kts 147°
2026-04-25 02:12 32.27676 -85.93775 39109 ft 446 kts 147°
2026-04-25 02:12 32.25167 -85.91662 39311 ft 447 kts 147°
2026-04-25 02:12 32.22617 -85.89516 39532 ft 448 kts 147°
2026-04-25 02:13 32.20094 -85.87393 39727 ft 449 kts 147°
2026-04-25 02:13 32.17535 -85.85243 39927 ft 450 kts 147°
2026-04-25 02:13 32.14967 -85.83086 40122 ft 452 kts 147°
2026-04-25 02:13 32.12393 -85.80926 40318 ft 453 kts 147°
2026-04-25 02:14 32.09842 -85.78786 40506 ft 453 kts 147°
2026-04-25 02:14 32.07257 -85.76619 40693 ft 454 kts 147°
2026-04-25 02:14 32.04699 -85.74477 40863 ft 456 kts 147°
2026-04-25 02:14 32.02093 -85.72297 40980 ft 458 kts 147°
2026-04-25 02:15 31.99519 -85.70145 40979 ft 463 kts 147°
2026-04-25 02:15 31.94190 -85.65693 40989 ft 473 kts 147°
2026-04-25 02:16 31.88768 -85.61170 40991 ft 483 kts 147°
2026-04-25 02:16 31.83232 -85.56558 40987 ft 491 kts 147°
2026-04-25 02:17 31.77616 -85.51888 40987 ft 500 kts 147°
2026-04-25 02:17 31.71921 -85.47158 40993 ft 506 kts 147°
2026-04-25 02:18 31.66155 -85.42375 40993 ft 503 kts 147°
2026-04-25 02:18 31.60462 -85.37664 41009 ft 500 kts 147°
2026-04-25 02:19 31.54772 -85.32959 41019 ft 503 kts 147°
2026-04-25 02:19 31.49010 -85.28205 41028 ft 507 kts 147°
2026-04-25 02:20 31.43275 -85.23477 41026 ft 506 kts 147°
2026-04-25 02:20 31.37508 -85.18732 41022 ft 503 kts 147°
2026-04-25 02:21 31.31807 -85.14049 41013 ft 505 kts 147°
2026-04-25 02:21 31.26027 -85.09307 41011 ft 508 kts 147°
2026-04-25 02:22 31.20234 -85.04562 41010 ft 509 kts 147°
2026-04-25 02:22 31.14454 -84.99834 41006 ft 506 kts 147°
2026-04-25 02:23 31.08702 -84.95138 41002 ft 505 kts 147°
2026-04-25 02:23 31.02916 -84.90421 41005 ft 507 kts 147°
2026-04-25 02:24 30.97136 -84.85714 41010 ft 511 kts 147°
2026-04-25 02:24 30.91300 -84.80971 41014 ft 511 kts 147°
2026-04-25 02:25 30.85475 -84.76242 41014 ft 508 kts 147°
2026-04-25 02:25 30.79655 -84.71525 41008 ft 507 kts 147°
2026-04-25 02:26 30.73887 -84.66859 41001 ft 511 kts 147°
2026-04-25 02:26 30.68024 -84.62120 41000 ft 513 kts 147°
2026-04-25 02:27 30.62179 -84.57405 41002 ft 511 kts 147°
2026-04-25 02:27 30.56357 -84.52715 41009 ft 509 kts 147°
2026-04-25 02:28 30.50516 -84.48016 41017 ft 510 kts 147°
2026-04-25 02:28 30.44681 -84.43330 41021 ft 513 kts 147°
2026-04-25 02:29 30.38810 -84.38620 41024 ft 514 kts 147°
2026-04-25 02:29 30.32916 -84.33901 41020 ft 513 kts 147°
2026-04-25 02:30 30.27076 -84.29231 41014 ft 511 kts 147°
2026-04-25 02:30 30.21200 -84.24539 41013 ft 512 kts 147°
2026-04-25 02:31 30.15338 -84.19866 41018 ft 515 kts 147°
2026-04-25 02:31 30.09428 -84.15160 41022 ft 516 kts 147°
2026-04-25 02:32 30.03534 -84.10475 41029 ft 514 kts 147°
2026-04-25 02:32 29.97669 -84.05820 41031 ft 512 kts 147°
2026-04-25 02:33 29.91757 -84.01134 41033 ft 513 kts 147°
2026-04-25 02:33 29.85898 -83.96498 41036 ft 516 kts 147°
2026-04-25 02:34 29.79966 -83.91809 41036 ft 518 kts 148°
2026-04-25 02:34 29.74024 -83.87120 41038 ft 517 kts 148°
2026-04-25 02:35 29.68094 -83.82447 41035 ft 515 kts 148°
2026-04-25 02:35 29.62181 -83.77795 41036 ft 515 kts 148°
2026-04-25 02:36 29.56244 -83.73131 41039 ft 519 kts 148°
2026-04-25 02:36 29.50271 -83.68444 41041 ft 521 kts 148°
2026-04-25 02:37 29.44290 -83.63759 41044 ft 520 kts 148°
2026-04-25 02:37 29.38327 -83.59094 41046 ft 518 kts 148°
2026-04-25 02:38 29.32356 -83.54430 41047 ft 517 kts 148°
2026-04-25 02:38 29.26395 -83.49781 41044 ft 520 kts 148°
2026-04-25 02:39 29.20404 -83.45115 41044 ft 523 kts 148°
2026-04-25 02:39 29.14391 -83.40437 41047 ft 523 kts 148°
2026-04-25 02:40 29.08385 -83.35772 41042 ft 522 kts 148°
2026-04-25 02:40 29.02387 -83.31121 41041 ft 521 kts 148°
2026-04-25 02:41 28.96391 -83.26478 41041 ft 521 kts 148°
2026-04-25 02:41 28.90358 -83.21813 41043 ft 525 kts 148°
2026-04-25 02:42 28.84283 -83.17121 41040 ft 527 kts 148°
2026-04-25 02:42 28.78231 -83.12454 41041 ft 524 kts 148°
2026-04-25 02:43 28.72202 -83.07812 41046 ft 522 kts 148°
2026-04-25 02:43 28.66181 -83.03182 41044 ft 525 kts 148°
2026-04-25 02:44 28.60111 -82.98521 41043 ft 528 kts 148°
2026-04-25 02:44 28.54039 -82.93865 41044 ft 527 kts 149°
2026-04-25 02:45 28.47974 -82.89222 41044 ft 525 kts 149°
2026-04-25 02:45 28.41905 -82.84581 41044 ft 524 kts 149°
2026-04-25 02:46 28.35841 -82.79952 41039 ft 527 kts 149°
2026-04-25 02:46 28.29758 -82.75313 41042 ft 529 kts 149°
2026-04-25 02:47 28.23606 -82.70630 41043 ft 530 kts 149°